• In Uzbekistan
  • List of Countries
  • For 7 days
  • Water Temperature
  • Weather Map
  • Weather Widgets
  • user-avatar
    Login

    Hourly Weather Korçe

    Today, 19 January, Sunday

    Time Temperature Precipitation Wind Pressure Humidity
    00:00 +1°C° 0 mm 1 mps 667 mmHg 89%
    01:00 +1°C° 0 mm 1 mps 667 mmHg 90%
    02:00 +1°C° 0 mm 1 mps 667 mmHg 90%
    03:00 +1°C° 0 mm 1 mps 666 mmHg 89%
    04:00 0°C° 0 mm 1 mps 666 mmHg 89%
    05:00 0°C° 0 mm 1 mps 666 mmHg 88%
    06:00 0°C° 0 mm 1 mps 666 mmHg 87%
    07:00 0°C° 0 mm 1 mps 667 mmHg 86%
    08:00 +2°C° 0 mm 1 mps 667 mmHg 80%
    09:00 +3°C° 0 mm 1 mps 667 mmHg 75%
    10:00 +4°C° 0 mm 1 mps 668 mmHg 69%
    11:00 +5°C° 0 mm 1 mps 668 mmHg 67%
    12:00 +6°C° 0 mm 1 mps 668 mmHg 65%
    13:00 +7°C° 0 mm 1 mps 668 mmHg 63%
    14:00 +6°C° 0 mm 1 mps 669 mmHg 68%
    15:00 +6°C° 0 mm 1 mps 669 mmHg 72%
    16:00 +5°C° 0 mm 1 mps 669 mmHg 77%
    17:00 +4°C° 0 mm 1 mps 669 mmHg 80%
    18:00 +3°C° 0 mm 1 mps 669 mmHg 84%
    19:00 +2°C° 0 mm 1 mps 669 mmHg 87%
    20:00 +1°C° 0 mm 1 mps 670 mmHg 87%
    21:00 +1°C° 0 mm 1 mps 670 mmHg 87%
    22:00 +1°C° 0 mm 1 mps 671 mmHg 86%
    23:00 +1°C° 0 mm 1 mps 671 mmHg 86%

    Tomorrow, 20 January, Monday

    Time Temperature Precipitation Wind Pressure Humidity
    00:00 0°C° 0 mm 1 mps 671 mmHg 86%
    01:00 0°C° 0 mm 1 mps 672 mmHg 86%
    02:00 0°C° 0 mm 1 mps 672 mmHg 86%
    03:00 -2°C° 0 mm 2 mps 672 mmHg 86%
    04:00 -2°C° 0 mm 2 mps 672 mmHg 86%
    05:00 -2°C° 0 mm 2 mps 673 mmHg 86%
    06:00 -3°C° 0 mm 2 mps 673 mmHg 86%
    07:00 -3°C° 0 mm 2 mps 674 mmHg 86%
    08:00 -1°C° 0 mm 2 mps 674 mmHg 80%
    09:00 +1°C° 0 mm 2 mps 675 mmHg 73%
    10:00 +3°C° 0 mm 2 mps 676 mmHg 66%
    11:00 +4°C° 0 mm 1 mps 676 mmHg 63%
    12:00 +5°C° 0 mm 1 mps 677 mmHg 60%
    13:00 +6°C° 0 mm 1 mps 677 mmHg 56%
    14:00 +6°C° 0 mm 1 mps 677 mmHg 60%
    15:00 +5°C° 0 mm 1 mps 677 mmHg 63%
    16:00 +5°C° 0 mm 1 mps 677 mmHg 66%
    17:00 +3°C° 0 mm 1 mps 677 mmHg 70%
    18:00 +2°C° 0 mm 1 mps 677 mmHg 73%
    19:00 -1°C° 0 mm 2 mps 677 mmHg 77%
    20:00 -2°C° 0 mm 2 mps 677 mmHg 76%
    21:00 -2°C° 0 mm 2 mps 678 mmHg 74%
    22:00 -2°C° 0 mm 2 mps 678 mmHg 73%
    23:00 -2°C° 0 mm 2 mps 678 mmHg 70%

    Day after tomorrow, 21 January, Tuesday

    Time Temperature Precipitation Wind Pressure Humidity
    00:00 -2°C° 0 mm 2 mps 678 mmHg 66%
    01:00 -3°C° 0 mm 2 mps 678 mmHg 63%
    02:00 -3°C° 0 mm 2 mps 678 mmHg 59%
    03:00 -3°C° 0 mm 2 mps 678 mmHg 55%
    04:00 -3°C° 0 mm 2 mps 678 mmHg 51%
    05:00 -3°C° 0 mm 2 mps 678 mmHg 48%
    06:00 -3°C° 0 mm 2 mps 678 mmHg 45%
    07:00 -3°C° 0 mm 2 mps 678 mmHg 41%
    08:00 +1°C° 0 mm 1 mps 678 mmHg 36%
    09:00 +3°C° 0 mm 1 mps 679 mmHg 30%
    10:00 +5°C° 0 mm 1 mps 680 mmHg 25%
    11:00 +6°C° 0 mm 1 mps 680 mmHg 25%
    12:00 +7°C° 0 mm 1 mps 679 mmHg 24%
    13:00 +8°C° 0 mm 1 mps 679 mmHg 23%
    14:00 +7°C° 0 mm 1 mps 679 mmHg 29%
    15:00 +5°C° 0 mm 1 mps 678 mmHg 35%
    16:00 +4°C° 0 mm 1 mps 678 mmHg 41%
    17:00 +3°C° 0 mm 1 mps 677 mmHg 41%
    18:00 +2°C° 0 mm 1 mps 677 mmHg 41%
    19:00 0°C° 0 mm 1 mps 676 mmHg 41%
    20:00 0°C° 0 mm 1 mps 676 mmHg 40%
    21:00 0°C° 0 mm 1 mps 676 mmHg 39%
    22:00 0°C° 0 mm 1 mps 676 mmHg 38%
    23:00 0°C° 0 mm 1 mps 676 mmHg 37%

    22 January, Wednesday

    Time Temperature Precipitation Wind Pressure Humidity
    00:00 0°C° 0 mm 1 mps 675 mmHg 36%
    01:00 0°C° 0 mm 1 mps 675 mmHg 35%
    02:00 0°C° 0 mm 1 mps 675 mmHg 33%
    03:00 0°C° 0 mm 1 mps 675 mmHg 32%
    04:00 0°C° 0 mm 1 mps 674 mmHg 31%
    05:00 0°C° 0 mm 1 mps 674 mmHg 30%
    06:00 0°C° 0 mm 1 mps 674 mmHg 29%
    07:00 +1°C° 0 mm 1 mps 674 mmHg 27%
    08:00 +3°C° 0 mm 1 mps 675 mmHg 26%
    09:00 +5°C° 0 mm 1 mps 675 mmHg 25%
    10:00 +6°C° 0 mm 0 mps 676 mmHg 24%
    11:00 +8°C° 0 mm 1 mps 675 mmHg 25%
    12:00 +8°C° 0 mm 1 mps 675 mmHg 27%
    13:00 +8°C° 0 mm 2 mps 675 mmHg 28%
    14:00 +8°C° 0 mm 1 mps 674 mmHg 36%
    15:00 +6°C° 0 mm 1 mps 673 mmHg 44%
    16:00 +5°C° 0 mm 1 mps 672 mmHg 51%
    17:00 +4°C° 0 mm 1 mps 672 mmHg 51%
    18:00 +2°C° 0 mm 1 mps 671 mmHg 51%
    19:00 +1°C° 0 mm 1 mps 671 mmHg 50%
    20:00 +1°C° 0 mm 1 mps 671 mmHg 47%
    21:00 +1°C° 0 mm 1 mps 671 mmHg 43%
    22:00 +1°C° 0 mm 1 mps 671 mmHg 39%
    23:00 +1°C° 0 mm 1 mps 671 mmHg 38%

    23 January, Thursday

    Time Temperature Precipitation Wind Pressure Humidity
    00:00 +1°C° 0 mm 1 mps 670 mmHg 36%
    01:00 +1°C° 0 mm 1 mps 670 mmHg 34%
    02:00 +1°C° 0 mm 1 mps 670 mmHg 34%
    03:00 +1°C° 0 mm 1 mps 670 mmHg 34%
    04:00 +1°C° 0 mm 1 mps 670 mmHg 33%
    05:00 +1°C° 0 mm 1 mps 670 mmHg 33%
    06:00 +1°C° 0 mm 1 mps 669 mmHg 33%
    07:00 +1°C° 0 mm 1 mps 669 mmHg 33%
    08:00 +3°C° 0 mm 1 mps 670 mmHg 33%
    09:00 +5°C° 0 mm 1 mps 671 mmHg 33%
    10:00 +7°C° 0 mm 1 mps 672 mmHg 33%
    11:00 +7°C° 0 mm 2 mps 672 mmHg 34%
    12:00 +8°C° 0 mm 2 mps 672 mmHg 35%
    13:00 +9°C° 0 mm 2 mps 672 mmHg 36%
    14:00 +8°C° 0 mm 2 mps 672 mmHg 41%
    15:00 +7°C° 0 mm 2 mps 672 mmHg 46%
    16:00 +7°C° 0 mm 1 mps 671 mmHg 52%
    17:00 +4°C° 0 mm 2 mps 671 mmHg 52%
    18:00 +3°C° 0 mm 2 mps 671 mmHg 53%
    19:00 +2°C° 0 mm 2 mps 671 mmHg 54%
    20:00 +1°C° 0 mm 2 mps 672 mmHg 54%
    21:00 +1°C° 0 mm 2 mps 672 mmHg 55%
    22:00 +1°C° 0 mm 2 mps 672 mmHg 55%
    23:00 -1°C° 0 mm 2 mps 672 mmHg 59%

    24 January, Friday

    Time Temperature Precipitation Wind Pressure Humidity
    00:00 -1°C° 0 mm 2 mps 672 mmHg 64%
    01:00 -2°C° 0 mm 2 mps 672 mmHg 68%
    02:00 -2°C° 0 mm 2 mps 672 mmHg 71%
    03:00 -2°C° 0 mm 2 mps 672 mmHg 74%
    04:00 -2°C° 0 mm 2 mps 673 mmHg 76%
    05:00 -2°C° 0 mm 2 mps 673 mmHg 76%
    06:00 -2°C° 0 mm 2 mps 673 mmHg 76%
    07:00 -2°C° 0 mm 2 mps 673 mmHg 76%
    08:00 +1°C° 0 mm 2 mps 674 mmHg 68%
    09:00 +3°C° 0 mm 2 mps 674 mmHg 59%
    10:00 +6°C° 0 mm 1 mps 675 mmHg 51%
    11:00 +7°C° 0 mm 1 mps 675 mmHg 50%
    12:00 +8°C° 0 mm 1 mps 675 mmHg 48%
    13:00 +8°C° 0 mm 1 mps 675 mmHg 46%
    14:00 +7°C° 0 mm 1 mps 675 mmHg 52%
    15:00 +7°C° 0 mm 1 mps 674 mmHg 58%
    16:00 +6°C° 0 mm 1 mps 674 mmHg 64%
    17:00 +5°C° 0 mm 1 mps 674 mmHg 69%
    18:00 +3°C° 0 mm 1 mps 673 mmHg 73%
    19:00 +2°C° 0 mm 1 mps 673 mmHg 78%
    20:00 +2°C° 0 mm 1 mps 673 mmHg 79%
    21:00 +2°C° 0 mm 1 mps 673 mmHg 80%
    22:00 +1°C° 0 mm 1 mps 673 mmHg 81%
    23:00 +1°C° 0 mm 1 mps 673 mmHg 83%
    Show more